Погода в Вилкине

Россия / Курганская область     55°32′43″N   64°07′42″E
темп.,
°C
ветер,
м/с
пор.,
м/с
влажн.,
%
обл.,
%
осадки,
мм/ч
давл.,
гПа
погр.,
м
8 марта, пн
пн823:00−10ссз5995100 2.3 1004373
02:00−12сз599599 0.4 1007275
05:00−18зсз459673 0.4 100976
08:00−20зюз46950 0.0 101090
11:00−14юз469018 0.0 1011265
14:00−10ююз61081100 0.0 1010567
17:00−10ююз71390100 0.1 1009853
20:00−8ююз71493100 0.2 1007744
9 марта, вт
вт923:00−7ююз8168699 0.3 1007615
02:00−7юз7148648 0.0 1007436
05:00−7ююз6138974 0.0 1008356
08:00−6ююз81495100 0.3 1006624
11:00−5ююз91489100 0.9 1005779
14:00−2зюз111683100 0.3 10051738
17:00−4з7137778 0.3 1008785
20:00−10з238619 0.0 101121
10 марта, ср
ср1023:00−11юз348749 0.0 101328
02:00−12ююз1285100 0.0 101221
05:00−12юв2386100 0.0 101022
08:00−11юв4793100 0.0 1008169
11:00−7юв4792100 0.0 1005310
14:00−5вюв5792100 0.0 1003473
17:00−5вюв5995100 0.7 1000585
20:00−6вюв5995100 1.0 1000488
11 марта, чт
чт1123:00−7в5995100 1.8 999415
02:00−9ююз3596100 1.4 1000286
05:00−16ююз3692100 2.1 1001149
08:00−20ююз239794 0.1 100346
11:00−16зюз129297 0.2 1004275
14:00−13ссз6792100 0.4 1005605
17:00−14ссз6892100 0.7 1007715
20:00−17сз51095100 0.2 1009406
12 марта, пт
пт1223:00−19сз5997100 0.3 1011310
02:00−23сз459890 0.1 101375
05:00−26сз349867 0.1 101542
08:00−27сз339640 0.0 101838
11:00−21зсз349020 0.0 1019292
14:00−16з357931 0.0 1020603
17:00−15зюз358960 0.0 1021455
20:00−18ююз459692 0.0 102276